Terminal Aerodrome Forecast
Issued by NWS

Home | Current Version | Previous Version | Text Only | Print | Product List | Glossary On
Versions: 1 2 3 4 5 6 7 8 9 10 11 12 13 14
352
FTUS42 KTBW 251732
TAFPGD
TAF
KPGD 251732Z 2518/2618 20005KT P6SM VCTS BKN040CB
     FM260300 VRB04KT P6SM SCT035
     FM261700 18004KT P6SM BKN080=

USA.gov is the U.S. government's official web portal to all federal, state and local government web resources and services.